Regional Weather Roundup
Issued by NWS

Home | Current Version | Previous Version | Graphics & Text | Print | Product List | Glossary On
Versions: 1 2 3 4 5 6 7 8 9 10 11 12 13 14 15 16 17 18 19 20 21 22 23 24 25 26 27 28 29 30 31 32 33 34 35 36 37 38 39 40 41 42 43 44 45 46 47 48 49 50
000
ASUS43 KMPX 160101
RWRMN
WEATHER ROUNDUP FOR MINNESOTA
NATIONAL WEATHER SERVICE TWIN CITIES/CHANHASSEN MN
700 PM CST SUN JAN 15 2017


NOTE: "FAIR" INDICATES FEW OR NO CLOUDS BELOW 12,000 FEET WITH NO
SIGNIFICANT WEATHER AND/OR OBSTRUCTIONS TO VISIBILITY. N/A MEANS
CURRENT SKY AND/OR WEATHER CONDITIONS ARE NOT AVAILABLE.

MNZ060>063-068>070-160200-
   Twin Cities Metro

CITY           SKY/WX    TMP DP  RH WIND       PRES   REMARKS
TWIN CITIES    CLOUDY    25  18  74 S7        30.22S WCI  17
ST PAUL        CLOUDY    24  19  81 SE8       30.24S WCI  15
CRYSTAL        CLOUDY    20  14  77 S5        30.20F WCI  13
BLAINE         CLEAR     21  18  86 SE5       30.21S WCI  15
LAKEVILLE      CLOUDY    19  18  93 CALM      30.22S
EDEN PRAIRIE   CLOUDY    24  17  74 S6        30.21S WCI  17
SOUTH ST PAUL  CLOUDY    25  19  78 S5        30.23S WCI  19
LAKE ELMO      FAIR      23  19  86 S6        30.23S WCI  16
$$
MNZ001>005-007-008-013>017-022>024-027-028-160200-
   Northwest Minnesota

CITY           SKY/WX    TMP DP  RH WIND       PRES   REMARKS
BEMIDJI        CLOUDY    24  15  67 SW6       30.03S WCI  17
HALLOCK        CLOUDY    12   7  79 S15       29.99R WCI  -4
ROSEAU         CLOUDY    16   9  73 S13       29.99R WCI   2
WARROAD        CLOUDY    18   9  68 SW14G21   29.98R WCI   4
THIEF RVR FALL CLOUDY    16  11  80 S14       30.03S WCI   2
CROOKSTON      CLOUDY    16  10  79 S13       30.05F WCI   2
FOSSTON        CLOUDY    16  10  79 S17       30.04F WCI   0
DETROIT LAKES  CLOUDY    21  18  86 S5        30.09S WCI  15
MOORHEAD       CLOUDY    18  12  79 S10       30.10F WCI   6
PARK RAPIDS    CLOUDY    17   9  70 S6        30.08S WCI   9
MAHNOMEN       FAIR      19  14  79 S16       30.06S WCI   4
$$
MNZ006-009>011-018-025>026-160200-
   North Central Minnesota

CITY           SKY/WX    TMP DP  RH WIND       PRES   REMARKS
BAUDETTE       CLOUDY    19   8  62 SW9       29.98R WCI   8
FLAG ISLAND    CLOUDY    16   9  73 S9        29.96S WCI   4
INTL FALLS     CLOUDY    25  14  63 SW8       30.00R WCI  16
WASKISH        CLOUDY    18  12  79 W5        30.02S WCI  11
BIG FORK       CLEAR     27  18  69 SW10      30.03R WCI  17
LONGVILLE      CLOUDY    27  16  63 S3        30.09S
GRAND RAPIDS   CLOUDY    24  13  62 S9        30.09S WCI  14
CRANE LAKE     CLEAR     27  16  63 S5        30.03R WCI  21
ORR            CLEAR     25  12  58 CALM      30.01R
COOK           CLEAR     27  14  59 SW8       30.04R WCI  18
WALKER         FAIR      24  16  71 SW9       30.06S WCI  14
$$
MNZ012-019>021-037-160200-
   Northeast Minnesota

CITY           SKY/WX    TMP DP  RH WIND       PRES   REMARKS
DULUTH         CLOUDY    24  14  65 SW16      30.10R WCI  11
ELY            CLEAR     27  10  50 SW9       30.02S WCI  17
HIBBING        CLOUDY    22   9  57 S5        30.06S WCI  16
EVELETH        CLEAR     26   7  44 SW12      30.07S WCI  16
DULUTH HARBOR  CLOUDY    27  16  63 CALM      30.16R
TWO HARBORS    CLEAR     27  12  54 W8        30.08S WCI  18
SILVER BAY     CLEAR     25  12  58 SW6       30.06F WCI  18
GRAND MARAIS     N/A     32  22  66 W8G17     30.06R WCI  25
G MARAIS ARPRT CLEAR     19  14  79 S6        30.00R WCI  11
$$
MNZ029>031-032-039>041-046>048-054>057-064-160200-
   West Central Minnesota

CITY           SKY/WX    TMP DP  RH WIND       PRES   REMARKS
FERGUS FALLS   CLOUDY    16  12  86 S10       30.17F WCI   3
WHEATON        CLOUDY    23  19  86 S8        30.16R WCI  14
MORRIS         CLOUDY    16  12  86 S9        30.13F WCI   4
ALEXANDRIA     CLOUDY    20  15  81 S7        30.13S WCI  11
ELBOW LAKE     FAIR      17  14  88 E7        30.13F FOG     WCI   7
WADENA         CLOUDY    18  12  79 S6        30.11S WCI   9
GLENWOOD       CLOUDY    16  14  93 S8        30.14F WCI   5
APPLETON       CLOUDY    25  18  74 S6        30.15F WCI  18
ORTONVILLE     CLOUDY    19  16  86 CALM      30.14S
MADISON        CLOUDY    23  18  80 S6        30.16S WCI  16
WILLMAR        FAIR      18  16  93 CALM      30.18S
$$
MNZ033>034-036-042>043-049>051-058-059-160200-
   Central Minnesota

CITY           SKY/WX    TMP DP  RH WIND       PRES   REMARKS
ST CLOUD       CLOUDY    18  15  88 S6        30.18S WCI  10
SAUK CENTRE    FAIR      15  12  90 CALM      30.16S
PAYNESVILLE    CLOUDY    21  19  91 S8        30.17F WCI  11
AITKIN         CLOUDY    27  12  54 S7        30.11S WCI  19
PINE RIVER     CLOUDY    23  16  74 S7        30.14R WCI  15
BRAINERD       CLOUDY    23  15  71 S9        30.13S WCI  13
STAPLES        CLOUDY    19  14  79 S8        30.12S WCI   9
LONG PRAIRIE   FAIR      14  10  85 SE6       30.15S WCI   5
LITTLE FALLS   CLOUDY    19  14  79 S3        30.17S
LITCHFIELD     CLOUDY    25  21  86 CALM      30.18S
BUFFALO        CLOUDY    18  15  86 CALM      30.21S
MAPLE LAKE     CLOUDY    19  18  94 S3        30.20S
HUTCHINSON     CLOUDY    19  18  94 CALM      30.20S
$$
MNZ037-044-045-052-053-160200-
   East Central Minnesota

CITY           SKY/WX    TMP DP  RH WIND       PRES   REMARKS
PRINCETON      CLOUDY    19  16  86 S3        30.19S
MORA           CLOUDY    19  12  73 SW3       30.20S
CAMBRIDGE      CLOUDY    25  16  68 S5        30.19R WCI  19
RUSH CITY      CLOUDY    21  14  73 S6        30.20S WCI  14
MOOSE LAKE     CLOUDY    23  14  68 S7        30.13S WCI  15
HINCKLEY       FAIR      21  14  73 S5        30.18S WCI  15
CLOQUET        CLOUDY    23  12  63 SW8       30.12R WCI  14
MCGREGOR       CLOUDY    27  18  69 S8        30.13S WCI  18
$$
MNZ071>073-080-081-089-090-097-098-160200-
   Southwest Minnesota

CITY           SKY/WX    TMP DP  RH WIND       PRES   REMARKS
MONTEVIDEO     CLOUDY    25  18  74 SW6       30.18S WCI  18
GRANITE FALLS  CLOUDY    23  18  83 S9        30.18F WCI  13
CANBY          CLOUDY    31  22  68 CALM      30.15S
MARSHALL       CLOUDY    25  20  81 SE7       30.17S WCI  17
REDWOOD FALLS  CLOUDY    23  17  78 S6        30.18F WCI  16
OLIVIA         CLOUDY    23  19  86 SE3       30.18S
PIPESTONE      CLOUDY    25  18  74 S6        30.14F WCI  18
WINDOM         CLOUDY    27  19  74 S5        30.18S WCI  21
WORTHINGTON    CLOUDY    27  20  75 S7        30.17S WCI  19
JACKSON        CLOUDY    27  19  74 SE3       30.19S
TRACY          CLOUDY    26  22  85 S5        30.16F WCI  20
SLAYTON        CLOUDY    25  21  85 S8        30.16F WCI  16
$$
MNZ065>067-074>077-082>085-091>093-160200-
   South Central Minnesota

CITY           SKY/WX    TMP DP  RH WIND       PRES   REMARKS
MANKATO        CLOUDY    24  20  84 S7        30.22S WCI  16
NEW ULM        CLOUDY    25  19  80 S6        30.20S WCI  18
ST JAMES       CLOUDY    28  21  74 S7        30.21F WCI  21
FAIRMONT       CLOUDY    24  20  84 S6        30.22R WCI  17
GLENCOE        CLOUDY    25  22  87 S5        30.20R WCI  19
FARIBAULT      CLOUDY    25  19  80 S6        30.23S WCI  18
OWATONNA       CLOUDY    21  18  86 SE9       30.22F WCI  11
WASECA         CLOUDY    19  16  86 SE7       30.24S WCI  10
ALBERT LEA     CLOUDY    21  18  86 S3        30.23S
$$
MNZ078>079-086>088-094>096-160200-
   Southeast Minnesota

CITY           SKY/WX    TMP DP  RH WIND       PRES   REMARKS
ROCHESTER      CLOUDY    17  14  88 S8        30.24R WCI   7
RED WING       CLOUDY    21  16  79 E3        30.25S
STANTON        CLOUDY    24  18  75 S6        30.22S WCI  17
DODGE CENTER   CLOUDY    18  12  79 CALM      30.23S
WINONA         CLOUDY    14  12  92 CALM      30.29F
AUSTIN         CLOUDY    19  16  86 CALM      30.23F
PRESTON        CLOUDY    19  15  85 S7        30.25F WCI   9
$$
ABBREVIATIONS USED IN REMARKS
   TC - TEMPERATURES IN CELSIUS
  WCI - WIND CHILL INDEX
   HX - HEAT INDEX
  VSB - VISIBILITY
$$



USA.gov is the U.S. government's official web portal to all federal, state and local government web resources and services.